Starlink 3807

operational
NORAD ID: 52353 Int'l Des: 2022-045 Owner: SPXS Country: US Constellation: starlink
LEOCIRCULAR

Starlink 3807について

説明を読み込み中...

リアルタイム位置

3D地球を読み込み中...

次回通過

高度履歴

Altitude vs Time

uPlot chart will show altitude changes over time

軌道要素

1 52353U 22045Y 25261.00474034 -.00000649 00000-0 -22718-4 0 9994
2 52353 53.2156 254.3334 0001441 83.2739 276.8417 15.08836549189718
Epoch: Sep 18, 2025 • Age: 21 hours

現在のステータス

高度 545.4 km
速度 7.60 km/s
衛星直下点 53.36°N, 23.58°E
打ち上げ日 Apr 29, 2022
運用期間 3.3 years
タイプ internet

技術仕様

分類 Payload
質量 297.00 kg
乾燥質量 275.00 kg
総質量 297.00 kg
長さ 0.20 m
直径 2.80 m
スパン 9.00 m
形状 Box + pan
製造者 SPXS
バスタイプ Starlink
フェーズステータス In Orbit
所有者/国 SPXS/US

大規模コンステレーション

Loading constellations...